Regional Weather Roundup
Issued by NWS

Home | Current Version | Previous Version | Graphics & Text | Print | Product List | Glossary On
Versions: 1 2 3 4 5 6 7 8 9 10 11 12 13 14 15 16 17 18 19 20 21 22 23 24 25 26 27 28 29 30 31 32 33 34 35 36 37 38 39 40 41 42 43 44 45 46 47 48 49 50
000
ASUS43 KMPX 270101
RWRMN
WEATHER ROUNDUP FOR MINNESOTA
NATIONAL WEATHER SERVICE TWIN CITIES/CHANHASSEN MN
800 PM CDT FRI AUG 26 2016


NOTE: "FAIR" INDICATES FEW OR NO CLOUDS BELOW 12,000 FEET WITH NO
SIGNIFICANT WEATHER AND/OR OBSTRUCTIONS TO VISIBILITY. N/A MEANS
CURRENT SKY AND/OR WEATHER CONDITIONS ARE NOT AVAILABLE.

MNZ060>063-068>070-270200-
   Twin Cities Metro

CITY           SKY/WX    TMP DP  RH WIND       PRES   REMARKS
TWIN CITIES    CLOUDY    68  55  63 SE5       30.12S
ST PAUL        CLOUDY    66  57  72 SE6       30.13S
CRYSTAL        CLOUDY    68  52  56 SW3       30.11S
BLAINE         CLOUDY    70  57  64 CALM      30.12S
LAKEVILLE      CLOUDY    63  59  88 CALM      30.13S
EDEN PRAIRIE   PTCLDY    68  56  65 SE5       30.12S
LAKEVILLE      CLOUDY    63  59  88 CALM      30.13S
SOUTH ST PAUL  CLOUDY    68  55  64 CALM      30.12F
LAKE ELMO      FAIR      64  59  82 CALM      30.14F
$$
MNZ001>005-007-008-013>017-022>024-027-028-270200-
   Northwest Minnesota

CITY           SKY/WX    TMP DP  RH WIND       PRES   REMARKS
BEMIDJI        CLOUDY    66  53  63 S5        30.06S
HALLOCK        CLOUDY    72  52  49 S10       29.97F
ROSEAU         CLOUDY    66  57  72 S6        30.00S
WARROAD        CLOUDY    66  57  72 CALM      30.01S
THIEF RVR FALL MOCLDY    67  55  65 SW7       30.04S
CROOKSTON      MOCLDY    68  54  60 SW9       30.03S
FOSSTON        CLOUDY    64  52  63 S5        30.05F
DETROIT LAKES  CLOUDY    68  52  56 S9        30.07F
MOORHEAD       CLOUDY    64  55  72 SW3       30.05F
PARK RAPIDS    PTCLDY    67  53  61 S5        30.07F
MAHNOMEN       CLOUDY    65  56  71 S5        30.05S
$$
MNZ006-009>011-018-025>026-270200-
   North Central Minnesota

CITY           SKY/WX    TMP DP  RH WIND       PRES   REMARKS
BAUDETTE       CLOUDY    65  51  60 S7        30.02F
FLAG ISLAND    CLOUDY    70  55  60 CALM      29.99S
INTL FALLS     CLEAR     60  49  66 CALM      30.04S
WASKISH        MOCLDY    64  57  77 CALM      30.04F
BIG FORK       CLEAR     61  54  77 CALM      30.07S
LONGVILLE      CLEAR     59  55  88 S3        30.08F
GRAND RAPIDS   PTCLDY    62  56  80 CALM      30.10F
CRANE LAKE     CLEAR     57  55  94 CALM      30.08F
ORR            CLEAR     59  50  72 CALM      30.05S
COOK           CLEAR     63  55  77 CALM      30.09S
WALKER         FAIR      65  54  67 CALM      30.07S
$$
MNZ012-019>021-037-270200-
   Northeast Minnesota

CITY           SKY/WX    TMP DP  RH WIND       PRES   REMARKS
DULUTH         MOCLDY    65  55  70 S7        30.11S
ELY            CLEAR     63  52  67 S6        30.10S
HIBBING        CLEAR     58  53  84 CALM      30.09S
EVELETH        PTCLDY    63  51  65 CALM      30.11R
DULUTH HARBOR  CLOUDY    70  57  64 S5        30.10S
TWO HARBORS    PTCLDY    63  57  82 CALM      30.09F
SILVER BAY     PTCLDY    61  55  82 CALM      30.10F
G MARAIS ARPRT CLOUDY    54  46  76 S3        30.16S
$$
MNZ029>031-032-039>041-046>048-054>057-064-270200-
   West Central Minnesota

CITY           SKY/WX    TMP DP  RH WIND       PRES   REMARKS
FERGUS FALLS   CLOUDY    64  57  77 S5        30.07F
WHEATON        CLOUDY    66  57  72 SE5       30.08F
MORRIS         PTCLDY    64  57  77 CALM      30.07F
ALEXANDRIA     PTCLDY    66  53  63 S6        30.10F
ELBOW LAKE     FAIR      63  57  81 SE5       30.08F
GLENWOOD       PTCLDY    63  55  77 SE6       30.10F
APPLETON       PTCLDY    66  55  68 SE6       30.07F
BENSON         CLOUDY    64  54  68 S5        30.09F
ORTONVILLE     MOCLDY    66  57  72 SE6       30.07S
MADISON        CLOUDY    66  57  72 SE6       30.08F
WILLMAR        FAIR      64  59  82 SE3       30.12F
$$
MNZ033>034-036-042>043-049>051-058-059-270200-
   Central Minnesota

CITY           SKY/WX    TMP DP  RH WIND       PRES   REMARKS
ST CLOUD       CLOUDY    64  57  78 S6        30.11F
SAUK CENTRE    FAIR      64  56  76 SE3       30.11S
PAYNESVILLE    PTCLDY    65  55  72 S3        30.12S
AITKIN         CLOUDY    64  54  68 S3        30.09S
PINE RIVER     PTCLDY    66  55  68 S3        30.11F
BRAINERD       CLOUDY    64  55  72 S6        30.10F
STAPLES        CLOUDY    63  52  67 S6        30.09F
LONG PRAIRIE   MOCLDY    63  55  77 CALM      30.11F
LITTLE FALLS   PTCLDY    64  54  68 CALM      30.11F
LITCHFIELD     MOCLDY    66  57  72 CALM      30.13S
BUFFALO        CLOUDY    66  56  68 CALM      30.13F
MAPLE LAKE     MOCLDY    65  59  81 CALM      30.13F
HUTCHINSON     CLOUDY    65  61  87 CALM      30.14S
$$
MNZ037-044-045-052-053-270200-
   East Central Minnesota

CITY           SKY/WX    TMP DP  RH WIND       PRES   REMARKS
PRINCETON      CLOUDY    66  55  68 CALM      30.12S
MORA           PTCLDY    64  54  68 CALM      30.14S
CAMBRIDGE      CLOUDY    66  55  68 CALM      30.11S
RUSH CITY      PTCLDY    63  57  81 CALM      30.13S
MOOSE LAKE     PTCLDY    61  55  82 CALM      30.09S
HINCKLEY       FAIR      64  57  77 S5        30.13R
CLOQUET        PTCLDY    64  54  68 CALM      30.11S
MCGREGOR       PTCLDY    64  54  68 S3        30.11S
$$
MNZ071>073-080-081-089-090-097-098-270200-
   Southwest Minnesota

CITY           SKY/WX    TMP DP  RH WIND       PRES   REMARKS
MONTEVIDEO     CLOUDY    64  57  77 S3        30.11F
GRANITE FALLS  CLOUDY    68  60  76 E3        30.11S
CANBY          PTCLDY    66  58  75 SE6       30.08F
MARSHALL       CLOUDY    67  58  72 SE8       30.10F
REDWOOD FALLS  PTCLDY    66  58  75 E5        30.11F
OLIVIA         PTCLDY    64  57  77 SE3       30.11S
PIPESTONE      PTCLDY    66  57  72 SE6       30.10F
WINDOM         CLOUDY    64  59  82 CALM      30.12S
WORTHINGTON    CLOUDY    64  60  87 E5        30.12S
JACKSON          N/A     64  59  82 E3        30.12S
TRACY          CLOUDY    66  60  82 SE3       30.11S
$$
MNZ065>067-074>077-082>085-091>093-270200-
   South Central Minnesota

CITY           SKY/WX    TMP DP  RH WIND       PRES   REMARKS
MANKATO        CLOUDY    66  57  72 CALM      30.12S
NEW ULM          N/A     66  57  72 CALM      30.11F
ST JAMES       CLOUDY    61  57  88 CALM      30.12F
FAIRMONT       CLOUDY    65  61  87 E3        30.12S
GLENCOE        PTCLDY    66  62  86 CALM      30.12S
FARIBAULT      MOCLDY    64  59  82 CALM      30.13S
OWATONNA       CLOUDY    64  59  82 CALM      30.13S
WASECA         CLOUDY    63  57  82 CALM      30.14S
ALBERT LEA     PTCLDY    64  59  82 CALM        N/A
$$
MNZ078>079-086>088-094>096-270200-
   Southeast Minnesota

CITY           SKY/WX    TMP DP  RH WIND       PRES   REMARKS
ROCHESTER      CLOUDY    64  60  87 SE5       30.13F
RED WING       CLOUDY    64  57  77 CALM      30.11F
STANTON        CLOUDY    64  59  82 CALM      30.12S
DODGE CENTER   PTCLDY    64  55  72 CALM      30.14S
WINONA         CLOUDY    66  59  77 CALM      30.13F
AUSTIN         PTCLDY    64  59  82 CALM      30.12S
PRESTON        PTCLDY    64  57  78 E5        30.14F
$$
ABBREVIATIONS USED IN REMARKS
   TC - TEMPERATURES IN CELSIUS
  WCI - WIND CHILL INDEX
   HX - HEAT INDEX
  VSB - VISIBILITY
$$




USA.gov is the U.S. government's official web portal to all federal, state and local government web resources and services.